This is the latest recevied weather packets stored in our database for station/object IT9CNT. If no packets are shown the sender has not sent any weather packets the latest 10 day(s).
| Time | Temp. | Humidity | Pressure | Rain* | Wind** | Luminosity | Snow |
|---|---|---|---|---|---|---|---|
| 1777548483 | 23.89° C | 65% | 1012 hPa | 0 mm | - | - | - |
| 1777548423 | 24.44° C | 63% | 1011.9 hPa | 0 mm | - | - | - |
| 1777548363 | 24.44° C | 66% | 1011.9 hPa | 0 mm | - | - | - |
| 1777548303 | 24.44° C | 65% | 1011.9 hPa | 0 mm | - | - | - |
| 1777548243 | 23.89° C | 66% | 1012 hPa | 0 mm | - | - | - |
| 1777548183 | 23.33° C | 66% | 1011.9 hPa | 0 mm | - | - | - |
| 1777548123 | 23.33° C | 65% | 1011.9 hPa | 0 mm | - | - | - |
| 1777548063 | 23.33° C | 66% | 1011.9 hPa | 0 mm | - | - | - |
| 1777548003 | 23.33° C | 67% | 1011.9 hPa | 0 mm | - | - | - |
| 1777547943 | 23.33° C | 66% | 1011.8 hPa | 0 mm | - | - | - |
| 1777547883 | 23.33° C | 66% | 1012.2 hPa | 0 mm | - | - | - |
| 1777547823 | 23.33° C | 65% | 1011.7 hPa | 0 mm | - | - | - |
| 1777547763 | 23.33° C | 65% | 1011.9 hPa | 0 mm | - | - | - |
| 1777547703 | 23.33° C | 67% | 1011.9 hPa | 0 mm | - | - | - |
| 1777547643 | 23.33° C | 67% | 1011.8 hPa | 0 mm | - | - | - |
| 1777547583 | 23.33° C | 67% | 1011.9 hPa | 0 mm | - | - | - |
| 1777547523 | 23.89° C | 66% | 1012.1 hPa | 0 mm | - | - | - |
| 1777547463 | 23.89° C | 66% | 1011.8 hPa | 0 mm | - | - | - |
| 1777547403 | 23.89° C | 67% | 1011.8 hPa | 0 mm | - | - | - |
| 1777547343 | 24.44° C | 65% | 1011.7 hPa | 0 mm | - | - | - |
| 1777547283 | 24.44° C | 65% | 1011.8 hPa | 0 mm | - | - | - |
| 1777547223 | 24.44° C | 64% | 1011.9 hPa | 0 mm | - | - | - |
| 1777547163 | 24.44° C | 65% | 1011.6 hPa | 0 mm | - | - | - |
| 1777547103 | 24.44° C | 65% | 1011.8 hPa | 0 mm | - | - | - |
| 1777547043 | 24.44° C | 64% | 1011.9 hPa | 0 mm | - | - | - |
* Rain latest hour (hover to see other rain measurements)
** Current wind speed in m/s (hover to see current wind gust speed)